This is the latest recevied weather packets stored in our database for station/object WD4IXD-WX. If no packets are shown the sender has not sent any weather packets the latest 10 day(s).
| Time | Temp. | Humidity | Pressure | Rain* | Wind** | Luminosity | Snow |
|---|---|---|---|---|---|---|---|
| 1777415404 | 7.22° C | 27% | 1018.7 hPa | 0 mm | - | 682 W/m² | - |
| 1777415104 | 7.22° C | 27% | 1018.6 hPa | 0 mm | - | 686 W/m² | - |
| 1777414804 | 7.78° C | 27% | 1018.6 hPa | 0 mm | - | 707 W/m² | - |
| 1777414505 | 7.22° C | 28% | 1018.6 hPa | 0 mm | - | 745 W/m² | - |
| 1777414204 | 6.67° C | 27% | 1018.6 hPa | 0 mm | - | 178 W/m² | - |
| 1777413904 | 7.22° C | 26% | 1018.5 hPa | 0 mm | - | 722 W/m² | - |
| 1777413604 | 7.22° C | 28% | 1018.6 hPa | 0 mm | - | 768 W/m² | - |
| 1777413304 | 7.22° C | 28% | 1018.6 hPa | 0 mm | - | 784 W/m² | - |
| 1777413004 | 7.22° C | 29% | 1018.6 hPa | 0 mm | - | 810 W/m² | - |
| 1777412704 | 7.22° C | 28% | 1018.6 hPa | 0 mm | - | 872 W/m² | - |
| 1777412404 | 6.11° C | 29% | 1018.6 hPa | 0 mm | - | 932 W/m² | - |
| 1777412104 | 7.22° C | 28% | 1018.6 hPa | 0 mm | - | 186 W/m² | - |
| 1777411804 | 7.22° C | 27% | 1018.6 hPa | 0 mm | - | 904 W/m² | - |
| 1777411503 | 7.22° C | 28% | 1018.6 hPa | 0 mm | - | 905 W/m² | - |
| 1777411203 | 6.67° C | 29% | 1018.6 hPa | 0 mm | - | 323 W/m² | - |
| 1777410903 | 6.67° C | 30% | 1018.6 hPa | 0 mm | - | 988 W/m² | - |
| 1777410603 | 7.22° C | 31% | 1018.6 hPa | 0 mm | - | 983 W/m² | - |
| 1777410304 | 6.67° C | 33% | 1018.6 hPa | 0 mm | - | 1030 W/m² | - |
| 1777410004 | 7.22° C | 33% | 1018.6 hPa | 0 mm | - | 1049 W/m² | - |
| 1777409704 | 6.67° C | 35% | 1018.5 hPa | 0 mm | - | 988 W/m² | - |
| 1777409404 | 6.11° C | 35% | 1018.6 hPa | 0 mm | - | 278 W/m² | - |
| 1777409104 | 6.67° C | 34% | 1018.7 hPa | 0 mm | - | 190 W/m² | - |
| 1777408804 | 6.67° C | 32% | 1018.6 hPa | 0 mm | - | 983 W/m² | - |
| 1777408503 | 6.67° C | 35% | 1018.7 hPa | 0 mm | - | 1016 W/m² | - |
| 1777408204 | 6.11° C | 34% | 1018.7 hPa | 0 mm | - | 1034 W/m² | - |
* Rain latest hour (hover to see other rain measurements)
** Current wind speed in m/s (hover to see current wind gust speed)